User: anonymous   Login
Location: Lafig�re
(44.4503°N, 4.0357°E)
Time: 11:41:08
(UTC+00:00)
Language:

Cosmos 1707 - Orbit

View from above orbital plane
View from above orbital plane
View from above satellite
View from above satellite

Ground track
Ground track

The orbit data is extracted from the following two-line orbital elements,

1 16326U 85113A   21166.87518645  .00000881  00000-0  45910-4 0  9996
2 16326  82.5108 212.7993 0008764 300.5131  59.5235 15.14693404937921
Epoch (UTC): 15 June 2021 21:00:16
Eccentricity: 0.0008764
inclination: 82.5108°
perigee height: 516 km
apogee height: 528 km
right ascension of ascending node: 212.7993°
argument of perigee: 300.5131°
revolutions per day: 15.14693404
mean anomaly at epoch: 59.5235°
orbit number at epoch: 93792

The dashed part of the orbit path shows where the satellite is in the earth's shadow,  

DLR